Phoenicia, NY (12464)

12:33 AM EDT on August 05, 2015 (GMT -0400)
Woodland Valley | | Change Station
CLOSE
Current Station
Personal Weather Station
Location: Phoenicia, NY
Elevation: 1240 ft
Nearby Weather Stations

Elev 1240 ft 42.04 °N, 74.34 °W | Updated 1 second ago

Partly Cloudy
Partly Cloudy
55.9 °F
Feels Like 55.9 °F
N
0.0
Wind Variable Wind from SSW
Gusts 0.0 mph

Today
High -- | Low -- °F
--% Chance of Precip.
Yesterday
High -- | Low -- °F
Precip. -- in
5:54 AM 8:11 PM
Waning Gibbous, 71% visible
Pressure 29.98 in
Visibility 10.0 miles
Clouds Mostly Cloudy 9500 ft
Dew Point 55 °F
Humidity 96%
Rainfall 0.00 in
Snow Depth Not available.
UV 0 out of 12
Pollen 7.40 out of 12
Air Quality Not available.
Flu Activity Not available.
METAR KMSV 050415Z AUTO 00000KT 10SM BKN095 16/14 A2998 RMK AO1

More Conditions Fewer Conditions

Pressure 29.98 in
Visibility 10.0 miles
Clouds Mostly Cloudy 9500 ft
Dew Point 55 °F
Humidity 96%
Rainfall 0.00 in
Snow Depth Not available.
UV 0 out of 12
Pollen 7.40 out of 12
Air Quality Not available.
Flu Activity Not available.
METAR KMSV 050415Z AUTO 00000KT 10SM BKN095 16/14 A2998 RMK AO1

More Conditions Fewer Conditions

10-Day Weather Forecast

×

Almanac

Astronomy

Aug. 05, 2015 Rise Set
Actual Time
Civil Twilight
Nautical Twilight
Astronomical Twilight
Moon
Length of Visible Light
Length of Day
Tomorrow will be .
, % of the Moon is Illuminated

Today's Extremes

State Highs State Lows

Community

WunderPhotos

Upload Photos

1,844,094 photos uploaded!

WunderBlogs® & News

Nearby

Air Quality

  Air Quality AQ Index Pollutant
Not available.

Snow Depth

Station Depth Elevation

Earthquake Activity

City Distance Mag. Time & Date
Minimum magnitude displayed is 2.5.

Coastal Water Temperatures

Place Temperature

Stations

Nearby Weather Stations

Station Location Temp. Windchill Dew Point Humidity Wind Precip. Elev Updated Type